Time,TemperatureF,DewpointF,PressureIn,WindDirection,WindDirectionDegrees,WindSpeedMPH,WindSpeedGustMPH,Humidity,HourlyPrecipIn,Conditions,Clouds,dailyrainin,SoftwareType,DateUTC
2013-03-31 00:00:00,55.7,53.7,30.14,West,270,1.0,3.0,93,0.00,,---,0.00,VWS V14.01,2013-03-31 07:00:00,
2013-03-31 00:30:00,55.2,53.2,30.15,West,270,0.0,2.0,93,0.00,,---,0.00,VWS V14.01,2013-03-31 07:30:00,
2013-03-31 01:00:00,55.5,54.1,30.15,West,270,0.0,3.0,95,0.00,,---,0.00,VWS V14.01,2013-03-31 08:00:00,
2013-03-31 01:30:00,56.5,55.1,30.15,SSE,158,1.0,4.0,95,0.00,,---,0.00,VWS V14.01,2013-03-31 08:30:00,
2013-03-31 02:00:00,57.3,55.6,30.14,SSE,158,1.0,3.0,94,0.00,,---,0.00,VWS V14.01,2013-03-31 09:00:00,
2013-03-31 02:30:00,57.8,55.2,30.13,East,90,2.0,5.0,91,0.00,,---,0.00,VWS V14.01,2013-03-31 09:30:00,
2013-03-31 03:00:00,58.1,55.5,30.13,East,90,1.0,5.0,91,0.00,,---,0.00,VWS V14.01,2013-03-31 10:00:00,
2013-03-31 03:30:00,58.3,55.4,30.13,East,90,2.0,5.0,90,0.00,,---,0.00,VWS V14.01,2013-03-31 10:30:00,
2013-03-31 04:00:00,58.4,55.5,30.12,East,90,2.0,5.0,90,0.00,,---,0.00,VWS V14.01,2013-03-31 11:00:00,
2013-03-31 04:30:00,58.1,55.2,30.12,East,90,1.0,3.0,90,0.00,,---,0.00,VWS V14.01,2013-03-31 11:30:00,
2013-03-31 05:00:00,58.2,55.3,30.12,East,90,1.0,3.0,90,0.00,,---,0.00,VWS V14.01,2013-03-31 12:00:00,
2013-03-31 05:30:00,57.8,54.9,30.12,East,90,0.0,4.0,90,0.00,,---,0.00,VWS V14.01,2013-03-31 12:30:00,
2013-03-31 06:00:00,57.6,55.3,30.13,East,90,1.0,3.0,92,0.00,,---,0.00,VWS V14.01,2013-03-31 13:00:00,
2013-03-31 06:30:00,58.1,55.2,30.13,East,90,1.0,6.0,90,0.00,,---,0.00,VWS V14.01,2013-03-31 13:30:00,
2013-03-31 07:00:00,58.4,55.5,30.14,ESE,112,2.0,6.0,90,0.00,,---,0.00,VWS V14.01,2013-03-31 14:00:00,
2013-03-31 07:30:00,58.7,55.5,30.14,ESE,112,2.0,6.0,89,0.00,,---,0.00,VWS V14.01,2013-03-31 14:30:00,
2013-03-31 08:00:00,59.1,55.5,30.14,East,90,2.0,5.0,88,0.00,,---,0.00,VWS V14.01,2013-03-31 15:00:00,
2013-03-31 08:30:00,59.9,56.0,30.15,ENE,68,3.0,5.0,87,0.00,,---,0.00,VWS V14.01,2013-03-31 15:30:00,
2013-03-31 09:00:00,61.1,56.6,30.15,ESE,112,4.0,7.0,85,0.00,,---,0.00,VWS V14.01,2013-03-31 16:00:00,
2013-03-31 09:30:00,62.2,57.0,30.15,ESE,112,2.0,5.0,83,0.00,,---,0.00,VWS V14.01,2013-03-31 16:30:00,
2013-03-31 10:00:00,62.3,57.4,30.16,SSE,158,4.0,10.0,84,0.00,,---,0.00,VWS V14.01,2013-03-31 17:00:00,
2013-03-31 10:30:00,62.5,57.6,30.17,SSE,158,4.0,9.0,84,0.00,,---,0.00,VWS V14.01,2013-03-31 17:30:00,
2013-03-31 11:00:00,63.7,57.8,30.16,South,180,5.0,11.0,81,0.00,,---,0.00,VWS V14.01,2013-03-31 18:00:00,
2013-03-31 11:30:00,64.8,58.1,30.17,SSE,158,4.0,9.0,79,0.00,,---,0.00,VWS V14.01,2013-03-31 18:30:00,
2013-03-31 12:00:00,64.4,58.1,30.17,SSE,158,6.0,13.0,80,0.00,,---,0.00,VWS V14.01,2013-03-31 19:00:00,
2013-03-31 12:30:00,65.7,59.4,30.16,SSE,158,6.0,13.0,80,0.00,,---,0.00,VWS V14.01,2013-03-31 19:30:00,
2013-03-31 13:00:00,66.2,59.2,30.15,SSE,158,8.0,15.0,78,0.00,,---,0.00,VWS V14.01,2013-03-31 20:00:00,
2013-03-31 13:30:00,66.1,59.0,30.14,SSE,158,8.0,16.0,78,0.00,,---,0.00,VWS V14.01,2013-03-31 20:30:00,
2013-03-31 14:00:00,67.5,59.3,30.13,South,180,7.0,15.0,75,0.00,,---,0.00,VWS V14.01,2013-03-31 21:00:00,
2013-03-31 14:30:00,66.6,58.8,30.12,South,180,9.0,17.0,76,0.00,,---,0.00,VWS V14.01,2013-03-31 21:30:00,
2013-03-31 15:00:00,66.1,58.7,30.11,South,180,10.0,18.0,77,0.00,,---,0.00,VWS V14.01,2013-03-31 22:00:00,
2013-03-31 15:30:00,66.7,58.9,30.11,South,180,10.0,19.0,76,0.00,,---,0.00,VWS V14.01,2013-03-31 22:30:00,
2013-03-31 16:00:00,67.0,59.2,30.10,South,180,10.0,19.0,76,0.00,,---,0.00,VWS V14.01,2013-03-31 23:00:00,
2013-03-31 16:30:00,65.7,59.0,30.10,SSW,202,9.0,19.0,79,0.00,,---,0.00,VWS V14.01,2013-03-31 23:30:00,
2013-03-31 17:00:00,66.3,59.2,30.09,SW,225,8.0,20.0,78,0.00,,---,0.00,VWS V14.01,2013-04-01 00:00:00,
2013-03-31 17:30:00,64.8,58.5,30.08,SSW,202,9.0,19.0,80,0.00,,---,0.00,VWS V14.01,2013-04-01 00:30:00,
2013-03-31 18:00:00,64.8,56.3,30.08,SW,225,6.0,13.0,74,0.00,,---,0.00,VWS V14.01,2013-04-01 01:00:00,
2013-03-31 18:30:00,64.9,55.3,30.09,WSW,248,5.0,10.0,71,0.00,,---,0.00,VWS V14.01,2013-04-01 01:30:00,
2013-03-31 19:00:00,64.5,56.0,30.09,West,270,5.0,10.0,74,0.00,,---,0.00,VWS V14.01,2013-04-01 02:00:00,
2013-03-31 19:30:00,62.0,56.5,30.10,West,270,7.0,14.0,82,0.00,,---,0.00,VWS V14.01,2013-04-01 02:30:00,
2013-03-31 20:00:00,60.8,56.3,30.11,West,270,7.0,14.0,85,0.00,,---,0.00,VWS V14.01,2013-04-01 03:00:00,
2013-03-31 20:30:00,60.5,56.0,30.12,West,270,7.0,14.0,85,0.00,,---,0.00,VWS V14.01,2013-04-01 03:30:00,
2013-03-31 21:00:00,60.0,55.5,30.12,WSW,248,7.0,13.0,85,0.00,,---,0.00,VWS V14.01,2013-04-01 04:00:00,
2013-03-31 21:30:00,59.2,55.7,30.14,WSW,248,7.0,12.0,88,0.00,,---,0.00,VWS V14.01,2013-04-01 04:30:00,
2013-03-31 22:00:00,58.5,55.0,30.14,West,270,5.0,10.0,88,0.00,,---,0.00,VWS V14.01,2013-04-01 05:00:00,
2013-03-31 22:30:00,58.2,54.4,30.15,WSW,248,6.0,12.0,87,0.00,,---,0.00,VWS V14.01,2013-04-01 05:30:00,
2013-03-31 23:00:00,57.9,54.4,30.15,WSW,248,5.0,11.0,88,0.00,,---,0.00,VWS V14.01,2013-04-01 06:00:00,
2013-03-31 23:30:00,57.7,54.2,30.14,WSW,248,4.0,10.0,88,0.00,,---,0.00,VWS V14.01,2013-04-01 06:30:00,